Time,TemperatureF,DewpointF,PressureIn,WindDirection,WindDirectionDegrees,WindSpeedMPH,WindSpeedGustMPH,Humidity,HourlyPrecipIn,Conditions,Clouds,dailyrainin,SoftwareType,DateUTC
2013-09-08 00:02:00,-999.0,-99.9,29.94,SSW,199,0.0,1.0,-999,-99.99,,,-99.99,,2013-09-08 04:02:00,
2013-09-08 00:24:00,72.0,68.0,29.94,SSW,200,0.0,0.0,87,0.00,,,0.00,,2013-09-08 04:24:00,
2013-09-08 00:54:00,72.0,68.0,29.95,SSW,199,0.0,0.0,87,0.00,,,0.00,,2013-09-08 04:54:00,
2013-09-08 01:23:00,71.0,67.0,29.96,SSW,200,0.0,0.0,88,0.00,,,0.00,,2013-09-08 05:23:00,
2013-09-08 01:52:00,71.0,68.0,29.96,SSW,200,0.0,0.0,90,0.00,,,0.00,,2013-09-08 05:52:00,
2013-09-08 02:21:00,71.0,68.0,29.96,SSW,200,0.0,0.0,90,0.00,,,0.00,,2013-09-08 06:21:00,
2013-09-08 02:53:00,70.0,67.0,29.96,SSW,200,0.0,1.0,91,0.00,,,0.00,,2013-09-08 06:53:00,
2013-09-08 03:12:00,70.0,67.0,29.96,SSW,199,0.0,0.0,91,0.00,,,0.00,,2013-09-08 07:12:00,
2013-09-08 03:23:00,69.0,67.0,29.95,SSW,199,0.0,0.0,92,0.00,,,0.00,,2013-09-08 07:23:00,
2013-09-08 03:52:00,69.0,67.0,29.94,SSW,200,0.0,0.0,93,0.00,,,0.00,,2013-09-08 07:52:00,
2013-09-08 04:22:00,69.0,67.0,29.94,SSW,200,0.0,0.0,93,0.00,,,0.00,,2013-09-08 08:22:00,
2013-09-08 04:52:00,69.0,67.0,29.95,SSW,200,0.0,0.0,94,0.00,,,0.00,,2013-09-08 08:52:00,
2013-09-08 05:22:00,68.0,67.0,29.95,SSW,200,0.0,0.0,95,0.00,,,0.00,,2013-09-08 09:22:00,
2013-09-08 05:54:00,68.0,66.0,29.95,SSW,200,0.0,0.0,94,0.00,,,0.00,,2013-09-08 09:54:00,
2013-09-08 06:23:00,67.0,66.0,29.94,SSW,199,0.0,0.0,95,0.00,,,0.00,,2013-09-08 10:23:00,
2013-09-08 06:53:00,67.0,66.0,29.95,SSW,200,0.0,0.0,95,0.00,,,0.00,,2013-09-08 10:53:00,
2013-09-08 07:21:00,67.0,66.0,29.96,SSW,199,0.0,0.0,96,0.00,,,0.00,,2013-09-08 11:21:00,
2013-09-08 07:52:00,67.0,66.0,29.97,SSW,199,0.0,0.0,96,0.00,,,0.00,,2013-09-08 11:52:00,
2013-09-08 08:22:00,67.0,66.0,29.97,SSW,199,0.0,1.0,97,0.00,,,0.00,,2013-09-08 12:22:00,
2013-09-08 08:52:00,68.0,67.0,29.97,SSW,199,0.0,1.0,97,0.00,,,0.00,,2013-09-08 12:52:00,
2013-09-08 09:22:00,69.0,68.0,29.97,SSW,200,0.0,0.0,97,0.00,,,0.00,,2013-09-08 13:22:00,
2013-09-08 09:52:00,71.0,70.0,29.97,SSW,199,0.0,0.0,96,0.00,,,0.00,,2013-09-08 13:52:00,
2013-09-08 10:22:00,73.0,71.0,29.99,SSW,199,0.0,0.0,93,0.00,,,0.00,,2013-09-08 14:22:00,
2013-09-08 10:52:00,75.0,71.0,29.99,SSW,199,0.0,1.0,88,0.00,,,0.00,,2013-09-08 14:52:00,
2013-09-08 11:23:00,78.0,72.0,29.98,SSE,153,0.0,4.0,82,0.00,,,0.00,,2013-09-08 15:23:00,
2013-09-08 11:55:00,79.0,71.0,29.98,ESE,107,0.0,3.0,77,0.00,,,0.00,,2013-09-08 15:55:00,
2013-09-08 12:23:00,80.0,72.0,29.98,SSE,149,0.0,4.0,77,0.00,,,0.00,,2013-09-08 16:23:00,
2013-09-08 12:53:00,82.0,72.0,29.98,SSE,150,1.0,7.0,72,0.00,,,0.00,,2013-09-08 16:53:00,
2013-09-08 13:23:00,83.0,73.0,29.98,SE,141,0.0,7.0,71,0.00,,,0.00,,2013-09-08 17:23:00,
2013-09-08 13:53:00,84.0,72.0,29.97,SSE,148,0.0,4.0,68,0.00,,,0.00,,2013-09-08 17:53:00,
2013-09-08 14:22:00,85.0,72.0,29.97,SE,128,1.0,4.0,66,0.00,,,0.00,,2013-09-08 18:22:00,
2013-09-08 14:52:00,86.0,72.0,29.97,ESE,123,0.0,0.0,63,0.00,,,0.00,,2013-09-08 18:52:00,
2013-09-08 15:12:00,86.0,71.0,29.97,SE,146,0.0,2.0,61,0.00,,,0.00,,2013-09-08 19:12:00,
2013-09-08 15:22:00,87.0,71.0,29.96,ESE,115,0.0,2.0,60,0.00,,,0.00,,2013-09-08 19:22:00,
2013-09-08 15:52:00,86.0,71.0,29.96,ESE,118,0.0,0.0,62,0.00,,,0.00,,2013-09-08 19:52:00,
2013-09-08 16:22:00,88.0,71.0,29.96,SSE,150,1.0,4.0,58,0.00,,,0.00,,2013-09-08 20:22:00,
2013-09-08 16:53:00,88.0,71.0,29.94,SE,143,0.0,4.0,58,0.00,,,0.00,,2013-09-08 20:53:00,
2013-09-08 17:22:00,87.0,71.0,29.93,SE,134,2.0,6.0,59,0.00,,,0.00,,2013-09-08 21:22:00,
2013-09-08 17:54:00,86.0,72.0,29.93,SE,130,0.0,1.0,63,0.00,,,0.00,,2013-09-08 21:54:00,
2013-09-08 18:24:00,85.0,72.0,29.93,SE,130,0.0,1.0,65,0.00,,,0.00,,2013-09-08 22:24:00,
2013-09-08 18:53:00,85.0,73.0,29.93,East,79,0.0,1.0,68,0.00,,,0.00,,2013-09-08 22:53:00,
2013-09-08 19:22:00,83.0,73.0,29.93,East,87,0.0,1.0,71,0.00,,,0.00,,2013-09-08 23:22:00,
2013-09-08 19:52:00,81.0,72.0,29.94,SE,141,1.0,7.0,74,0.00,,,0.00,,2013-09-08 23:52:00,
2013-09-08 20:11:00,81.0,72.0,29.94,SSW,195,1.0,7.0,75,0.00,,,0.00,,2013-09-09 00:11:00,
2013-09-08 20:22:00,80.0,72.0,29.94,SE,129,2.0,11.0,77,0.00,,,0.00,,2013-09-09 00:22:00,
2013-09-08 20:52:00,78.0,71.0,29.95,South,173,2.0,8.0,80,0.00,,,0.00,,2013-09-09 00:52:00,
2013-09-08 21:21:00,76.0,70.0,29.96,SE,146,1.0,5.0,82,0.00,,,0.00,,2013-09-09 01:21:00,
2013-09-08 21:52:00,75.0,70.0,29.97,SE,134,0.0,1.0,84,0.00,,,0.00,,2013-09-09 01:52:00,
2013-09-08 22:22:00,74.0,69.0,29.97,SE,136,0.0,2.0,85,0.00,,,0.00,,2013-09-09 02:22:00,
2013-09-08 22:53:00,73.0,69.0,29.97,SE,134,0.0,3.0,87,0.00,,,0.00,,2013-09-09 02:53:00,
2013-09-08 23:22:00,73.0,69.0,29.98,SE,145,0.0,6.0,86,0.00,,,0.00,,2013-09-09 03:22:00,
2013-09-08 23:55:00,73.0,69.0,29.98,SSE,150,0.0,4.0,86,0.00,,,0.00,,2013-09-09 03:55:00,